Time,TemperatureF,DewpointF,PressureIn,WindDirection,WindDirectionDegrees,WindSpeedMPH,WindSpeedGustMPH,Humidity,HourlyPrecipIn,Conditions,Clouds,dailyrainin,SoftwareType,DateUTC
2013-04-07 00:00:00,38.9,34.2,29.86,ESE,113,2.0,2.0,83,0.00,,,0.01,Wunderground v.1.15,2013-04-07 06:00:00,
2013-04-07 00:04:00,38.7,34.0,29.86,ESE,113,1.0,3.0,83,0.00,,,0.01,Wunderground v.1.15,2013-04-07 06:04:00,
2013-04-07 00:10:00,38.6,33.9,29.86,ESE,116,1.0,3.0,83,0.00,,,0.00,Wunderground v.1.15,2013-04-07 06:10:00,
2013-04-07 00:15:00,38.5,33.8,29.86,ESE,116,1.0,1.0,83,0.00,,,0.00,Wunderground v.1.15,2013-04-07 06:15:00,
2013-04-07 00:20:00,38.3,33.6,29.86,ESE,115,1.0,1.0,83,0.00,,,0.00,Wunderground v.1.15,2013-04-07 06:20:00,
2013-04-07 00:24:00,38.0,33.6,29.86,ESE,117,1.0,1.0,84,0.00,,,0.00,Wunderground v.1.15,2013-04-07 06:24:00,
2013-04-07 00:30:00,37.9,33.8,29.86,ESE,118,1.0,2.0,85,0.00,,,0.00,Wunderground v.1.15,2013-04-07 06:30:00,
2013-04-07 00:40:00,37.8,34.0,29.86,ESE,119,1.0,1.0,86,0.00,,,0.00,Wunderground v.1.15,2013-04-07 06:40:00,
2013-04-07 00:44:00,37.7,33.9,29.86,ESE,119,1.0,1.0,86,0.00,,,0.00,Wunderground v.1.15,2013-04-07 06:44:00,
2013-04-07 00:50:00,37.9,34.4,29.86,ESE,121,1.0,2.0,87,0.00,,,0.00,Wunderground v.1.15,2013-04-07 06:50:00,
2013-04-07 00:55:00,38.0,34.2,29.86,ESE,122,1.0,1.0,86,0.00,,,0.00,Wunderground v.1.15,2013-04-07 06:55:00,
2013-04-07 01:01:00,38.0,34.2,29.85,ESE,123,1.0,7.0,86,0.00,,,0.00,Wunderground v.1.15,2013-04-07 07:01:00,
2013-04-07 01:05:00,38.0,34.2,29.85,ESE,123,1.0,7.0,86,0.00,,,0.00,Wunderground v.1.15,2013-04-07 07:05:00,
2013-04-07 01:10:00,38.0,34.2,29.85,ESE,121,0.0,7.0,86,0.00,,,0.00,Wunderground v.1.15,2013-04-07 07:10:00,
2013-04-07 01:15:00,38.0,34.2,29.85,ESE,121,1.0,1.0,86,0.00,,,0.00,Wunderground v.1.15,2013-04-07 07:15:00,
2013-04-07 01:20:00,38.0,34.2,29.85,ESE,121,1.0,1.0,86,0.00,,,0.00,Wunderground v.1.15,2013-04-07 07:20:00,
2013-04-07 01:30:00,38.0,33.9,29.85,SE,128,1.0,2.0,85,0.00,,,0.00,Wunderground v.1.15,2013-04-07 07:30:00,
2013-04-07 01:35:00,37.7,33.9,29.85,SE,136,2.0,2.0,86,0.00,,,0.00,Wunderground v.1.15,2013-04-07 07:35:00,
2013-04-07 01:40:00,37.6,33.8,29.84,SE,136,1.0,2.0,86,0.00,,,0.00,Wunderground v.1.15,2013-04-07 07:40:00,
2013-04-07 01:45:00,37.5,33.7,29.84,SE,136,0.0,0.0,86,0.00,,,0.00,Wunderground v.1.15,2013-04-07 07:45:00,
2013-04-07 01:50:00,37.4,33.6,29.84,SE,136,1.0,3.0,86,0.00,,,0.00,Wunderground v.1.15,2013-04-07 07:50:00,
2013-04-07 01:55:00,37.4,33.6,29.84,ESE,121,2.0,5.0,86,0.00,,,0.00,Wunderground v.1.15,2013-04-07 07:55:00,
2013-04-07 02:05:00,37.9,33.8,29.84,East,82,2.0,2.0,85,0.00,,,0.00,Wunderground v.1.15,2013-04-07 08:05:00,
2013-04-07 02:10:00,38.0,33.9,29.84,East,82,1.0,2.0,85,0.00,,,0.00,Wunderground v.1.15,2013-04-07 08:10:00,
2013-04-07 02:15:00,38.0,33.6,29.84,East,82,0.0,0.0,84,0.00,,,0.00,Wunderground v.1.15,2013-04-07 08:15:00,
2013-04-07 02:20:00,37.8,33.4,29.83,East,82,0.0,0.0,84,0.00,,,0.00,Wunderground v.1.15,2013-04-07 08:20:00,
2013-04-07 02:25:00,37.6,33.2,29.83,East,82,0.0,2.0,84,0.00,,,0.00,Wunderground v.1.15,2013-04-07 08:25:00,
2013-04-07 02:30:00,37.2,33.1,29.83,East,85,1.0,2.0,85,0.00,,,0.00,Wunderground v.1.15,2013-04-07 08:30:00,
2013-04-07 02:35:00,36.9,33.1,29.83,East,88,2.0,2.0,86,0.00,,,0.00,Wunderground v.1.15,2013-04-07 08:35:00,
2013-04-07 02:40:00,36.8,33.0,29.83,East,90,2.0,2.0,86,0.00,,,0.00,Wunderground v.1.15,2013-04-07 08:40:00,
2013-04-07 02:50:00,36.6,32.8,29.82,East,90,0.0,1.0,86,0.00,,,0.00,Wunderground v.1.15,2013-04-07 08:50:00,
2013-04-07 02:55:00,36.4,32.6,29.82,East,90,0.0,0.0,86,0.00,,,0.00,Wunderground v.1.15,2013-04-07 08:55:00,
2013-04-07 03:05:00,36.1,32.6,29.82,East,90,0.0,11.0,87,0.00,,,0.00,Wunderground v.1.15,2013-04-07 09:05:00,
2013-04-07 03:10:00,36.2,32.7,29.82,East,89,1.0,11.0,87,0.00,,,0.00,Wunderground v.1.15,2013-04-07 09:10:00,
2013-04-07 03:15:00,36.4,32.9,29.82,East,99,2.0,2.0,87,0.00,,,0.00,Wunderground v.1.15,2013-04-07 09:15:00,
2013-04-07 03:20:00,36.6,33.1,29.82,East,98,2.0,2.0,87,0.00,,,0.00,Wunderground v.1.15,2013-04-07 09:20:00,
2013-04-07 03:25:00,36.7,32.9,29.82,East,96,2.0,2.0,86,0.00,,,0.00,Wunderground v.1.15,2013-04-07 09:25:00,
2013-04-07 03:30:00,36.6,32.8,29.82,East,98,1.0,2.0,86,0.00,,,0.00,Wunderground v.1.15,2013-04-07 09:30:00,
2013-04-07 03:35:00,36.6,32.8,29.81,ESE,107,1.0,1.0,86,0.00,,,0.00,Wunderground v.1.15,2013-04-07 09:35:00,
2013-04-07 03:40:00,36.6,32.8,29.82,ESE,119,1.0,1.0,86,0.00,,,0.00,Wunderground v.1.15,2013-04-07 09:40:00,
2013-04-07 03:50:00,36.5,32.7,29.81,ESE,117,1.0,1.0,86,0.00,,,0.00,Wunderground v.1.15,2013-04-07 09:50:00,
2013-04-07 03:55:00,36.5,32.4,29.81,ESE,117,1.0,1.0,85,0.00,,,0.00,Wunderground v.1.15,2013-04-07 09:55:00,
2013-04-07 04:00:00,36.4,32.6,29.81,ESE,118,1.0,1.0,86,0.00,,,0.00,Wunderground v.1.15,2013-04-07 10:00:00,
2013-04-07 04:05:00,36.4,32.6,29.81,ESE,118,1.0,5.0,86,0.00,,,0.00,Wunderground v.1.15,2013-04-07 10:05:00,
2013-04-07 04:10:00,36.4,32.6,29.81,ESE,119,0.0,1.0,86,0.00,,,0.00,Wunderground v.1.15,2013-04-07 10:10:00,
2013-04-07 04:15:00,36.3,32.2,29.81,ESE,118,1.0,1.0,85,0.00,,,0.00,Wunderground v.1.15,2013-04-07 10:15:00,
2013-04-07 04:20:00,36.1,32.3,29.81,ESE,118,1.0,1.0,86,0.00,,,0.00,Wunderground v.1.15,2013-04-07 10:20:00,
2013-04-07 04:25:00,36.0,31.9,29.81,ESE,118,1.0,1.0,85,0.00,,,0.00,Wunderground v.1.15,2013-04-07 10:25:00,
2013-04-07 04:30:00,35.8,32.0,29.82,ESE,119,1.0,2.0,86,0.00,,,0.00,Wunderground v.1.15,2013-04-07 10:30:00,
2013-04-07 04:35:00,35.6,31.8,29.81,ESE,119,1.0,2.0,86,0.00,,,0.00,Wunderground v.1.15,2013-04-07 10:35:00,
2013-04-07 04:40:00,35.6,31.8,29.81,ESE,119,1.0,1.0,86,0.00,,,0.00,Wunderground v.1.15,2013-04-07 10:40:00,
2013-04-07 04:45:00,35.6,32.1,29.81,ESE,117,1.0,1.0,87,0.00,,,0.00,Wunderground v.1.15,2013-04-07 10:45:00,
2013-04-07 04:50:00,35.7,31.9,29.81,ESE,112,2.0,2.0,86,0.00,,,0.00,Wunderground v.1.15,2013-04-07 10:50:00,
2013-04-07 05:00:00,35.6,31.5,29.81,ESE,113,1.0,1.0,85,0.00,,,0.00,Wunderground v.1.15,2013-04-07 11:00:00,
2013-04-07 05:05:00,35.6,31.5,29.81,ESE,113,0.0,7.0,85,0.00,,,0.00,Wunderground v.1.15,2013-04-07 11:05:00,
2013-04-07 05:10:00,35.5,31.4,29.81,ESE,113,0.0,0.0,85,0.00,,,0.00,Wunderground v.1.15,2013-04-07 11:10:00,
2013-04-07 05:20:00,34.8,30.8,29.81,ESE,113,1.0,2.0,85,0.00,,,0.00,Wunderground v.1.15,2013-04-07 11:20:00,
2013-04-07 05:25:00,34.4,30.6,29.82,ESE,113,1.0,2.0,86,0.00,,,0.00,Wunderground v.1.15,2013-04-07 11:25:00,
2013-04-07 05:30:00,34.4,30.9,29.82,ESE,113,0.0,0.0,87,0.00,,,0.00,Wunderground v.1.15,2013-04-07 11:30:00,
2013-04-07 05:40:00,34.6,31.4,29.82,ESE,113,0.0,0.0,88,0.00,,,0.00,Wunderground v.1.15,2013-04-07 11:40:00,
2013-04-07 05:45:00,34.8,31.6,29.82,ESE,113,0.0,0.0,88,0.00,,,0.00,Wunderground v.1.15,2013-04-07 11:45:00,
2013-04-07 05:50:00,35.0,31.8,29.83,ESE,113,0.0,0.0,88,0.00,,,0.00,Wunderground v.1.15,2013-04-07 11:50:00,
2013-04-07 05:55:00,35.1,31.6,29.82,ESE,113,0.0,0.0,87,0.00,,,0.00,Wunderground v.1.15,2013-04-07 11:55:00,
2013-04-07 06:05:00,35.1,31.3,29.82,ESE,113,0.0,7.0,86,0.00,,,0.00,Wunderground v.1.15,2013-04-07 12:05:00,
2013-04-07 06:10:00,35.1,31.6,29.83,ESE,113,0.0,7.0,87,0.00,,,0.00,Wunderground v.1.15,2013-04-07 12:10:00,
2013-04-07 06:20:00,35.1,31.3,29.83,ESE,113,0.0,0.0,86,0.00,,,0.00,Wunderground v.1.15,2013-04-07 12:20:00,
2013-04-07 06:25:00,35.1,31.3,29.83,ESE,113,0.0,1.0,86,0.00,,,0.00,Wunderground v.1.15,2013-04-07 12:25:00,
2013-04-07 06:30:00,35.0,30.9,29.83,ESE,113,1.0,1.0,85,0.00,,,0.00,Wunderground v.1.15,2013-04-07 12:30:00,
2013-04-07 06:35:00,34.9,30.8,29.83,ESE,113,1.0,1.0,85,0.00,,,0.00,Wunderground v.1.15,2013-04-07 12:35:00,
2013-04-07 06:40:00,34.8,30.8,29.83,ESE,113,0.0,1.0,85,0.00,,,0.00,Wunderground v.1.15,2013-04-07 12:40:00,
2013-04-07 06:55:00,35.1,31.0,29.82,ESE,113,1.0,1.0,85,0.00,,,0.00,Wunderground v.1.15,2013-04-07 12:55:00,
2013-04-07 07:05:00,35.0,30.9,29.82,ESE,113,1.0,4.0,85,0.00,,,0.00,Wunderground v.1.15,2013-04-07 13:05:00,
2013-04-07 07:10:00,34.9,30.8,29.82,ESE,113,1.0,4.0,85,0.00,,,0.00,Wunderground v.1.15,2013-04-07 13:10:00,
2013-04-07 07:15:00,34.8,30.8,29.82,ESE,113,1.0,4.0,85,0.00,,,0.00,Wunderground v.1.15,2013-04-07 13:15:00,
2013-04-07 07:20:00,34.8,30.8,29.82,ESE,113,1.0,4.0,85,0.00,,,0.00,Wunderground v.1.15,2013-04-07 13:20:00,
2013-04-07 07:25:00,34.6,30.6,29.82,ESE,113,1.0,1.0,85,0.00,,,0.00,Wunderground v.1.15,2013-04-07 13:25:00,
2013-04-07 07:30:00,34.4,30.4,29.82,ESE,113,1.0,1.0,85,0.00,,,0.00,Wunderground v.1.15,2013-04-07 13:30:00,
2013-04-07 07:35:00,34.4,30.6,29.82,ESE,113,1.0,3.0,86,0.00,,,0.00,Wunderground v.1.15,2013-04-07 13:35:00,
2013-04-07 07:40:00,34.6,30.8,29.82,ESE,113,1.0,3.0,86,0.00,,,0.00,Wunderground v.1.15,2013-04-07 13:40:00,
2013-04-07 07:45:00,34.8,31.0,29.82,ESE,113,1.0,1.0,86,0.00,,,0.00,Wunderground v.1.15,2013-04-07 13:45:00,
2013-04-07 07:50:00,34.9,30.8,29.82,ESE,113,1.0,2.0,85,0.00,,,0.00,Wunderground v.1.15,2013-04-07 13:50:00,
2013-04-07 07:55:00,34.8,30.8,29.82,ESE,113,1.0,1.0,85,0.00,,,0.00,Wunderground v.1.15,2013-04-07 13:55:00,
2013-04-07 08:01:00,34.8,30.8,29.82,ESE,113,0.0,6.0,85,0.00,,,0.00,Wunderground v.1.15,2013-04-07 14:01:00,
2013-04-07 08:05:00,34.8,30.8,29.82,ESE,113,0.0,6.0,85,0.00,,,0.00,Wunderground v.1.15,2013-04-07 14:05:00,
2013-04-07 08:10:00,34.8,30.8,29.82,ESE,113,0.0,6.0,85,0.00,,,0.00,Wunderground v.1.15,2013-04-07 14:10:00,
2013-04-07 08:15:00,34.8,30.8,29.82,ESE,113,0.0,0.0,85,0.00,,,0.00,Wunderground v.1.15,2013-04-07 14:15:00,
2013-04-07 08:20:00,35.1,31.3,29.82,ESE,113,0.0,0.0,86,0.00,,,0.00,Wunderground v.1.15,2013-04-07 14:20:00,
2013-04-07 08:25:00,35.5,31.7,29.82,ESE,113,0.0,0.0,86,0.00,,,0.00,Wunderground v.1.15,2013-04-07 14:25:00,
2013-04-07 08:30:00,36.2,32.7,29.82,ESE,113,0.0,0.0,87,0.00,,,0.00,Wunderground v.1.15,2013-04-07 14:30:00,
2013-04-07 08:35:00,36.8,32.1,29.81,ESE,113,0.0,0.0,83,0.00,,,0.00,Wunderground v.1.15,2013-04-07 14:35:00,
2013-04-07 08:40:00,37.7,33.0,29.82,ESE,113,0.0,0.0,83,0.00,,,0.00,Wunderground v.1.15,2013-04-07 14:40:00,
2013-04-07 08:45:00,38.8,33.5,29.81,ESE,113,0.0,3.0,81,0.00,,,0.00,Wunderground v.1.15,2013-04-07 14:45:00,
2013-04-07 08:50:00,40.2,33.9,29.81,ESE,113,2.0,3.0,78,0.00,,,0.00,Wunderground v.1.15,2013-04-07 14:50:00,
2013-04-07 08:55:00,41.1,33.8,29.81,ESE,122,2.0,2.0,75,0.00,,,0.00,Wunderground v.1.15,2013-04-07 14:55:00,
2013-04-07 09:05:00,43.2,34.1,29.80,SE,137,2.0,2.0,70,0.00,,,0.00,Wunderground v.1.15,2013-04-07 15:05:00,
2013-04-07 09:10:00,44.1,33.8,29.80,SE,138,2.0,2.0,67,0.00,,,0.00,Wunderground v.1.15,2013-04-07 15:10:00,
2013-04-07 09:15:00,44.8,34.5,29.80,SE,144,2.0,3.0,67,0.00,,,0.00,Wunderground v.1.15,2013-04-07 15:15:00,
2013-04-07 09:20:00,45.3,33.8,29.79,SSE,148,2.0,3.0,64,0.00,,,0.00,Wunderground v.1.15,2013-04-07 15:20:00,
2013-04-07 09:25:00,46.1,34.6,29.79,SSE,151,2.0,5.0,64,0.00,,,0.00,Wunderground v.1.15,2013-04-07 15:25:00,
2013-04-07 09:30:00,46.9,34.1,29.79,SSE,157,3.0,5.0,61,0.00,,,0.00,Wunderground v.1.15,2013-04-07 15:30:00,
2013-04-07 09:35:00,47.1,33.9,29.79,South,179,3.0,3.0,60,0.00,,,0.00,Wunderground v.1.15,2013-04-07 15:35:00,
2013-04-07 09:40:00,47.0,33.4,29.78,South,181,3.0,3.0,59,0.00,,,0.00,Wunderground v.1.15,2013-04-07 15:40:00,
2013-04-07 09:45:00,47.6,34.4,29.78,South,170,2.0,2.0,60,0.00,,,0.00,Wunderground v.1.15,2013-04-07 15:45:00,
2013-04-07 09:50:00,48.6,34.5,29.78,South,169,2.0,2.0,58,0.00,,,0.00,Wunderground v.1.15,2013-04-07 15:50:00,
2013-04-07 10:00:00,50.3,31.3,29.78,South,170,1.0,1.0,48,0.00,,,0.00,Wunderground v.1.15,2013-04-07 16:00:00,
2013-04-07 10:05:00,50.9,33.4,29.78,NW,304,2.0,3.0,51,0.00,,,0.00,Wunderground v.1.15,2013-04-07 16:05:00,
2013-04-07 10:10:00,51.6,33.6,29.78,NW,317,3.0,3.0,50,0.00,,,0.00,Wunderground v.1.15,2013-04-07 16:10:00,
2013-04-07 10:15:00,52.1,34.0,29.78,NW,318,3.0,4.0,50,0.00,,,0.00,Wunderground v.1.15,2013-04-07 16:15:00,
2013-04-07 10:20:00,52.1,33.0,29.78,NW,321,3.0,4.0,48,0.00,,,0.00,Wunderground v.1.15,2013-04-07 16:20:00,
2013-04-07 10:30:00,51.7,33.1,29.78,North,350,3.0,3.0,49,0.00,,,0.00,Wunderground v.1.15,2013-04-07 16:30:00,
2013-04-07 10:40:00,51.5,31.9,29.77,NNW,328,4.0,4.0,47,0.00,,,0.00,Wunderground v.1.15,2013-04-07 16:40:00,
2013-04-07 10:45:00,51.7,30.5,29.77,North,360,4.0,6.0,44,0.00,,,0.00,Wunderground v.1.15,2013-04-07 16:45:00,
2013-04-07 10:50:00,52.1,30.3,29.77,NW,315,3.0,3.0,43,0.00,,,0.00,Wunderground v.1.15,2013-04-07 16:50:00,
2013-04-07 10:55:00,52.3,29.3,29.77,NW,326,4.0,4.0,41,0.00,,,0.00,Wunderground v.1.15,2013-04-07 16:55:00,
2013-04-07 11:01:00,52.6,28.3,29.78,NNW,329,3.0,7.0,39,0.00,,,0.00,Wunderground v.1.15,2013-04-07 17:01:00,
2013-04-07 11:05:00,52.3,28.1,29.78,NNW,337,2.0,9.0,39,0.00,,,0.00,Wunderground v.1.15,2013-04-07 17:05:00,
2013-04-07 11:10:00,51.4,27.2,29.78,NNW,330,4.0,4.0,39,0.00,,,0.00,Wunderground v.1.15,2013-04-07 17:10:00,
2013-04-07 11:15:00,50.4,27.6,29.77,SSE,156,4.0,4.0,41,0.00,,,0.00,Wunderground v.1.15,2013-04-07 17:15:00,
2013-04-07 11:20:00,50.2,28.5,29.77,NNE,22,3.0,5.0,43,0.00,,,0.00,Wunderground v.1.15,2013-04-07 17:20:00,
2013-04-07 11:30:00,52.2,27.3,29.76,NW,320,3.0,3.0,38,0.00,,,0.00,Wunderground v.1.15,2013-04-07 17:30:00,
2013-04-07 11:35:00,53.3,30.8,29.75,WNW,289,2.0,3.0,42,0.00,,,0.00,Wunderground v.1.15,2013-04-07 17:35:00,
2013-04-07 11:40:00,54.6,28.2,29.75,North,355,2.0,2.0,36,0.00,,,0.00,Wunderground v.1.15,2013-04-07 17:40:00,
2013-04-07 11:45:00,54.8,29.0,29.74,North,355,2.0,2.0,37,0.00,,,0.00,Wunderground v.1.15,2013-04-07 17:45:00,
2013-04-07 11:50:00,54.5,28.1,29.74,NNW,333,2.0,4.0,36,0.00,,,0.00,Wunderground v.1.15,2013-04-07 17:50:00,
2013-04-07 11:55:00,54.1,29.0,29.74,NNW,333,2.0,4.0,38,0.00,,,0.00,Wunderground v.1.15,2013-04-07 17:55:00,
2013-04-07 12:00:00,53.2,28.2,29.74,NW,325,2.0,5.0,38,0.00,,,0.00,Wunderground v.1.15,2013-04-07 18:00:00,
2013-04-07 12:05:00,51.2,29.4,29.76,NNW,334,4.0,6.0,43,0.00,,,0.01,Wunderground v.1.15,2013-04-07 18:05:00,
2013-04-07 12:10:00,47.3,32.4,29.76,NNW,338,10.0,11.0,56,0.00,,,0.01,Wunderground v.1.15,2013-04-07 18:10:00,
2013-04-07 12:15:00,44.8,35.6,29.75,North,351,10.0,11.0,70,0.07,,,0.02,Wunderground v.1.15,2013-04-07 18:15:00,
2013-04-07 12:20:00,44.0,36.6,29.75,NNW,343,9.0,11.0,75,0.07,,,0.02,Wunderground v.1.15,2013-04-07 18:20:00,
2013-04-07 12:30:00,46.4,36.4,29.75,NW,316,5.0,5.0,68,0.00,,,0.02,Wunderground v.1.15,2013-04-07 18:30:00,
2013-04-07 12:35:00,48.0,34.8,29.74,NNW,331,3.0,6.0,60,0.00,,,0.02,Wunderground v.1.15,2013-04-07 18:35:00,
2013-04-07 12:40:00,49.2,34.6,29.74,NW,320,3.0,3.0,57,0.00,,,0.02,Wunderground v.1.15,2013-04-07 18:40:00,
2013-04-07 12:45:00,49.8,33.8,29.73,NNW,348,3.0,4.0,54,0.00,,,0.02,Wunderground v.1.15,2013-04-07 18:45:00,
2013-04-07 12:50:00,50.2,35.1,29.73,WNW,286,2.0,2.0,56,0.00,,,0.02,Wunderground v.1.15,2013-04-07 18:50:00,
2013-04-07 12:55:00,51.2,36.9,29.72,West,277,2.0,2.0,58,0.00,,,0.02,Wunderground v.1.15,2013-04-07 18:55:00,
2013-04-07 13:00:00,52.6,37.3,29.72,NW,323,1.0,9.0,56,0.00,,,0.02,Wunderground v.1.15,2013-04-07 19:00:00,
2013-04-07 13:10:00,53.7,36.5,29.71,WNW,302,3.0,3.0,52,0.00,,,0.02,Wunderground v.1.15,2013-04-07 19:10:00,
2013-04-07 13:15:00,54.7,35.9,29.71,North,355,2.0,3.0,49,0.00,,,0.02,Wunderground v.1.15,2013-04-07 19:15:00,
2013-04-07 13:20:00,56.2,35.1,29.70,NNW,344,2.0,5.0,45,0.00,,,0.02,Wunderground v.1.15,2013-04-07 19:20:00,
2013-04-07 13:25:00,57.1,34.8,29.70,NW,323,3.0,5.0,43,0.00,,,0.02,Wunderground v.1.15,2013-04-07 19:25:00,
2013-04-07 13:30:00,57.9,33.1,29.70,NNW,331,4.0,4.0,39,0.00,,,0.02,Wunderground v.1.15,2013-04-07 19:30:00,
2013-04-07 13:35:00,58.3,33.4,29.69,NW,321,4.0,5.0,39,0.00,,,0.02,Wunderground v.1.15,2013-04-07 19:35:00,
2013-04-07 13:40:00,59.0,34.1,29.69,West,268,3.0,5.0,39,0.00,,,0.02,Wunderground v.1.15,2013-04-07 19:40:00,
2013-04-07 13:45:00,59.4,33.8,29.69,WNW,284,3.0,5.0,38,0.00,,,0.02,Wunderground v.1.15,2013-04-07 19:45:00,
2013-04-07 13:55:00,60.8,32.2,29.67,SSW,206,2.0,4.0,34,0.00,,,0.02,Wunderground v.1.15,2013-04-07 19:55:00,
2013-04-07 14:05:00,60.4,30.4,29.67,SSE,159,4.0,4.0,32,0.00,,,0.02,Wunderground v.1.15,2013-04-07 20:05:00,
2013-04-07 14:10:00,58.9,29.1,29.67,SSE,156,4.0,4.0,32,0.00,,,0.02,Wunderground v.1.15,2013-04-07 20:10:00,
2013-04-07 14:20:00,56.3,26.8,29.68,South,178,3.0,10.0,32,0.00,,,0.02,Wunderground v.1.15,2013-04-07 20:20:00,
2013-04-07 14:25:00,55.4,26.7,29.68,South,184,3.0,3.0,33,0.00,,,0.02,Wunderground v.1.15,2013-04-07 20:25:00,
2013-04-07 14:30:00,54.4,25.9,29.68,SSE,164,3.0,3.0,33,0.00,,,0.02,Wunderground v.1.15,2013-04-07 20:30:00,
2013-04-07 14:35:00,53.5,29.1,29.70,WNW,296,5.0,13.0,39,0.00,,,0.02,Wunderground v.1.15,2013-04-07 20:35:00,
2013-04-07 14:40:00,51.4,31.8,29.70,NW,311,8.0,13.0,47,0.00,,,0.02,Wunderground v.1.15,2013-04-07 20:40:00,
2013-04-07 14:45:00,50.1,32.2,29.70,NW,321,8.0,8.0,50,0.00,,,0.02,Wunderground v.1.15,2013-04-07 20:45:00,
2013-04-07 14:50:00,49.7,32.8,29.70,NNW,336,5.0,8.0,52,0.00,,,0.02,Wunderground v.1.15,2013-04-07 20:50:00,
2013-04-07 14:55:00,50.0,32.6,29.69,NW,317,4.0,4.0,51,0.00,,,0.02,Wunderground v.1.15,2013-04-07 20:55:00,
2013-04-07 15:01:00,50.9,32.4,29.69,NW,309,4.0,4.0,49,0.00,,,0.02,Wunderground v.1.15,2013-04-07 21:01:00,
2013-04-07 15:15:00,51.1,33.6,29.69,NW,315,2.0,4.0,51,0.00,,,0.02,Wunderground v.1.15,2013-04-07 21:15:00,
2013-04-07 15:20:00,50.9,36.2,29.69,NW,311,3.0,4.0,57,0.00,,,0.02,Wunderground v.1.15,2013-04-07 21:20:00,
2013-04-07 15:25:00,50.6,34.1,29.69,NW,318,2.0,2.0,53,0.00,,,0.02,Wunderground v.1.15,2013-04-07 21:25:00,
2013-04-07 15:30:00,51.0,33.5,29.68,NW,318,2.0,2.0,51,0.00,,,0.02,Wunderground v.1.15,2013-04-07 21:30:00,
2013-04-07 15:35:00,51.9,33.8,29.67,NW,318,1.0,2.0,50,0.00,,,0.02,Wunderground v.1.15,2013-04-07 21:35:00,
2013-04-07 15:40:00,53.6,31.6,29.67,NW,318,1.0,2.0,43,0.00,,,0.02,Wunderground v.1.15,2013-04-07 21:40:00,
2013-04-07 15:50:00,55.5,30.3,29.67,NW,319,1.0,2.0,38,0.00,,,0.02,Wunderground v.1.15,2013-04-07 21:50:00,
2013-04-07 15:55:00,55.4,30.2,29.66,NW,318,0.0,0.0,38,0.00,,,0.02,Wunderground v.1.15,2013-04-07 21:55:00,
2013-04-07 16:05:00,54.2,31.6,29.68,West,259,1.0,1.0,42,0.00,,,0.02,Wunderground v.1.15,2013-04-07 22:05:00,
2013-04-07 16:10:00,53.7,34.5,29.68,SW,230,2.0,3.0,48,0.00,,,0.02,Wunderground v.1.15,2013-04-07 22:10:00,
2013-04-07 16:15:00,53.8,31.8,29.67,SW,229,1.0,1.0,43,0.00,,,0.02,Wunderground v.1.15,2013-04-07 22:15:00,
2013-04-07 16:20:00,54.4,30.6,29.66,SW,229,1.0,2.0,40,0.00,,,0.02,Wunderground v.1.15,2013-04-07 22:20:00,
2013-04-07 16:25:00,55.0,29.8,29.66,South,190,1.0,2.0,38,0.00,,,0.02,Wunderground v.1.15,2013-04-07 22:25:00,
2013-04-07 16:30:00,55.1,30.6,29.66,WNW,296,2.0,2.0,39,0.00,,,0.02,Wunderground v.1.15,2013-04-07 22:30:00,
2013-04-07 16:35:00,55.5,30.3,29.65,NW,309,1.0,1.0,38,0.00,,,0.02,Wunderground v.1.15,2013-04-07 22:35:00,
2013-04-07 16:40:00,55.6,30.4,29.65,NW,306,1.0,2.0,38,0.00,,,0.02,Wunderground v.1.15,2013-04-07 22:40:00,
2013-04-07 16:45:00,55.7,31.1,29.65,SSE,167,1.0,2.0,39,0.00,,,0.02,Wunderground v.1.15,2013-04-07 22:45:00,
2013-04-07 16:50:00,55.3,30.7,29.65,SE,144,3.0,3.0,39,0.00,,,0.02,Wunderground v.1.15,2013-04-07 22:50:00,
2013-04-07 16:55:00,54.8,30.3,29.65,SSE,153,3.0,3.0,39,0.00,,,0.02,Wunderground v.1.15,2013-04-07 22:55:00,
2013-04-07 17:05:00,53.6,30.4,29.65,SE,133,3.0,3.0,41,0.00,,,0.02,Wunderground v.1.15,2013-04-07 23:05:00,
2013-04-07 17:10:00,53.2,30.7,29.65,SSE,147,3.0,3.0,42,0.00,,,0.02,Wunderground v.1.15,2013-04-07 23:10:00,
2013-04-07 17:15:00,52.9,31.0,29.65,SSE,148,3.0,3.0,43,0.00,,,0.02,Wunderground v.1.15,2013-04-07 23:15:00,
2013-04-07 17:20:00,52.6,30.7,29.64,ESE,121,3.0,3.0,43,0.00,,,0.02,Wunderground v.1.15,2013-04-07 23:20:00,
2013-04-07 17:30:00,51.9,30.6,29.64,ESE,109,2.0,3.0,44,0.00,,,0.02,Wunderground v.1.15,2013-04-07 23:30:00,
2013-04-07 17:35:00,51.6,30.9,29.64,ENE,74,3.0,3.0,45,0.00,,,0.02,Wunderground v.1.15,2013-04-07 23:35:00,
2013-04-07 17:40:00,51.3,30.7,29.63,East,101,3.0,3.0,45,0.00,,,0.02,Wunderground v.1.15,2013-04-07 23:40:00,
2013-04-07 17:45:00,51.3,30.1,29.63,ESE,103,3.0,4.0,44,0.00,,,0.02,Wunderground v.1.15,2013-04-07 23:45:00,
2013-04-07 17:50:00,51.5,26.7,29.63,ENE,64,2.0,4.0,38,0.00,,,0.02,Wunderground v.1.15,2013-04-07 23:50:00,
2013-04-07 18:05:00,52.5,30.0,29.63,SE,142,2.0,2.0,42,0.00,,,0.02,Wunderground v.1.15,2013-04-08 00:05:00,
2013-04-07 18:10:00,52.5,30.0,29.64,SSE,167,1.0,4.0,42,0.00,,,0.02,Wunderground v.1.15,2013-04-08 00:10:00,
2013-04-07 18:15:00,52.4,30.0,29.63,SSE,155,2.0,2.0,42,0.00,,,0.02,Wunderground v.1.15,2013-04-08 00:15:00,
2013-04-07 18:20:00,52.3,29.3,29.63,SE,126,2.0,2.0,41,0.00,,,0.02,Wunderground v.1.15,2013-04-08 00:20:00,
2013-04-07 18:25:00,52.4,30.0,29.63,SE,126,1.0,1.0,42,0.00,,,0.02,Wunderground v.1.15,2013-04-08 00:25:00,
2013-04-07 18:30:00,52.6,28.3,29.63,SE,126,0.0,1.0,39,0.00,,,0.02,Wunderground v.1.15,2013-04-08 00:30:00,
2013-04-07 18:35:00,52.7,27.8,29.63,SE,126,0.0,1.0,38,0.00,,,0.02,Wunderground v.1.15,2013-04-08 00:35:00,
2013-04-07 18:40:00,52.8,29.7,29.64,SE,126,1.0,2.0,41,0.00,,,0.02,Wunderground v.1.15,2013-04-08 00:40:00,
2013-04-07 18:50:00,52.4,29.4,29.63,ENE,63,2.0,2.0,41,0.00,,,0.02,Wunderground v.1.15,2013-04-08 00:50:00,
2013-04-07 18:55:00,52.4,28.8,29.63,East,95,2.0,6.0,40,0.00,,,0.02,Wunderground v.1.15,2013-04-08 00:55:00,
2013-04-07 19:01:00,52.6,28.9,29.63,East,94,1.0,10.0,40,0.00,,,0.02,Wunderground v.1.15,2013-04-08 01:01:00,
2013-04-07 19:10:00,52.8,27.2,29.63,East,80,1.0,10.0,37,0.00,,,0.02,Wunderground v.1.15,2013-04-08 01:10:00,
2013-04-07 19:15:00,52.5,28.2,29.63,East,80,1.0,2.0,39,0.00,,,0.02,Wunderground v.1.15,2013-04-08 01:15:00,
2013-04-07 19:20:00,52.1,26.6,29.63,ENE,78,1.0,2.0,37,0.00,,,0.02,Wunderground v.1.15,2013-04-08 01:20:00,
2013-04-07 19:25:00,51.9,25.1,29.63,ENE,71,2.0,4.0,35,0.00,,,0.02,Wunderground v.1.15,2013-04-08 01:25:00,
2013-04-07 19:30:00,51.7,26.9,29.63,ENE,71,1.0,4.0,38,0.00,,,0.02,Wunderground v.1.15,2013-04-08 01:30:00,
2013-04-07 19:35:00,51.2,27.1,29.63,ENE,71,1.0,1.0,39,0.00,,,0.02,Wunderground v.1.15,2013-04-08 01:35:00,
2013-04-07 19:40:00,50.7,24.7,29.63,ENE,71,0.0,1.0,36,0.00,,,0.02,Wunderground v.1.15,2013-04-08 01:40:00,
2013-04-07 19:45:00,50.6,25.9,29.63,ENE,71,0.0,1.0,38,0.00,,,0.02,Wunderground v.1.15,2013-04-08 01:45:00,
2013-04-07 19:50:00,50.4,25.1,29.63,ENE,71,0.0,1.0,37,0.00,,,0.02,Wunderground v.1.15,2013-04-08 01:50:00,
2013-04-07 19:55:00,50.1,23.5,29.63,ENE,71,0.0,0.0,35,0.00,,,0.02,Wunderground v.1.15,2013-04-08 01:55:00,
2013-04-07 20:00:00,49.9,23.3,29.63,ENE,71,0.0,0.0,35,0.00,,,0.02,Wunderground v.1.15,2013-04-08 02:00:00,
2013-04-07 20:05:00,49.7,23.8,29.63,ENE,71,0.0,10.0,36,0.00,,,0.02,Wunderground v.1.15,2013-04-08 02:05:00,
2013-04-07 20:10:00,49.4,24.2,29.63,ENE,71,0.0,1.0,37,0.00,,,0.02,Wunderground v.1.15,2013-04-08 02:10:00,
2013-04-07 20:20:00,48.8,25.5,29.64,East,84,1.0,2.0,40,0.00,,,0.02,Wunderground v.1.15,2013-04-08 02:20:00,
2013-04-07 20:25:00,48.8,24.3,29.64,East,88,1.0,2.0,38,0.00,,,0.02,Wunderground v.1.15,2013-04-08 02:25:00,
2013-04-07 20:30:00,48.9,24.4,29.64,East,88,1.0,1.0,38,0.00,,,0.02,Wunderground v.1.15,2013-04-08 02:30:00,
2013-04-07 20:35:00,48.8,24.9,29.64,East,88,0.0,1.0,39,0.00,,,0.02,Wunderground v.1.15,2013-04-08 02:35:00,
2013-04-07 20:40:00,48.6,23.5,29.64,East,88,0.0,1.0,37,0.00,,,0.02,Wunderground v.1.15,2013-04-08 02:40:00,
2013-04-07 20:50:00,48.7,22.9,29.64,East,90,1.0,1.0,36,0.00,,,0.02,Wunderground v.1.15,2013-04-08 02:50:00,
2013-04-07 20:55:00,48.8,24.3,29.64,East,90,1.0,1.0,38,0.00,,,0.02,Wunderground v.1.15,2013-04-08 02:55:00,
2013-04-07 21:00:00,48.7,22.9,29.64,East,90,1.0,1.0,36,0.00,,,0.02,Wunderground v.1.15,2013-04-08 03:00:00,
2013-04-07 21:10:00,48.7,24.2,29.64,East,90,1.0,3.0,38,0.00,,,0.02,Wunderground v.1.15,2013-04-08 03:10:00,
2013-04-07 21:15:00,48.6,22.8,29.65,East,91,1.0,1.0,36,0.00,,,0.02,Wunderground v.1.15,2013-04-08 03:15:00,
2013-04-07 21:20:00,48.5,25.8,29.65,ESE,121,2.0,2.0,41,0.00,,,0.02,Wunderground v.1.15,2013-04-08 03:20:00,
2013-04-07 21:30:00,48.5,25.2,29.65,ESE,118,2.0,3.0,40,0.00,,,0.02,Wunderground v.1.15,2013-04-08 03:30:00,
2013-04-07 21:40:00,48.2,25.6,29.65,ESE,119,2.0,4.0,41,0.00,,,0.02,Wunderground v.1.15,2013-04-08 03:40:00,
2013-04-07 21:50:00,48.3,25.7,29.65,ESE,111,2.0,2.0,41,0.00,,,0.02,Wunderground v.1.15,2013-04-08 03:50:00,
2013-04-07 21:55:00,48.1,26.1,29.65,SE,126,2.0,4.0,42,0.00,,,0.02,Wunderground v.1.15,2013-04-08 03:55:00,
2013-04-07 22:05:00,47.3,25.9,29.65,ESE,122,3.0,3.0,43,0.00,,,0.02,Wunderground v.1.15,2013-04-08 04:05:00,
2013-04-07 22:10:00,47.3,24.2,29.65,ESE,118,2.0,3.0,40,0.00,,,0.02,Wunderground v.1.15,2013-04-08 04:10:00,
2013-04-07 22:15:00,47.3,25.3,29.65,ESE,115,2.0,3.0,42,0.00,,,0.02,Wunderground v.1.15,2013-04-08 04:15:00,
2013-04-07 22:20:00,47.4,24.9,29.65,East,101,3.0,3.0,41,0.00,,,0.02,Wunderground v.1.15,2013-04-08 04:20:00,
2013-04-07 22:25:00,47.5,23.1,29.65,East,101,2.0,2.0,38,0.00,,,0.02,Wunderground v.1.15,2013-04-08 04:25:00,
2013-04-07 22:30:00,47.6,26.2,29.65,East,101,1.0,2.0,43,0.00,,,0.02,Wunderground v.1.15,2013-04-08 04:30:00,
2013-04-07 22:35:00,47.3,24.2,29.65,ESE,107,1.0,1.0,40,0.00,,,0.02,Wunderground v.1.15,2013-04-08 04:35:00,
2013-04-07 22:40:00,46.9,23.8,29.65,ESE,121,1.0,2.0,40,0.00,,,0.02,Wunderground v.1.15,2013-04-08 04:40:00,
2013-04-07 22:45:00,47.0,25.1,29.65,ENE,70,2.0,2.0,42,0.00,,,0.02,Wunderground v.1.15,2013-04-08 04:45:00,
2013-04-07 22:50:00,46.7,26.5,29.64,ESE,118,4.0,6.0,45,0.00,,,0.02,Wunderground v.1.15,2013-04-08 04:50:00,
2013-04-07 23:00:00,46.5,25.2,29.64,ESE,110,3.0,3.0,43,0.00,,,0.02,Wunderground v.1.15,2013-04-08 05:00:00,
2013-04-07 23:05:00,46.6,23.5,29.64,ESE,107,2.0,12.0,40,0.00,,,0.02,Wunderground v.1.15,2013-04-08 05:05:00,
2013-04-07 23:10:00,46.9,24.4,29.64,ESE,115,2.0,3.0,41,0.00,,,0.02,Wunderground v.1.15,2013-04-08 05:10:00,
2013-04-07 23:20:00,47.3,24.2,29.63,East,98,3.0,4.0,40,0.00,,,0.02,Wunderground v.1.15,2013-04-08 05:20:00,
2013-04-07 23:30:00,47.6,23.8,29.62,East,101,3.0,3.0,39,0.00,,,0.02,Wunderground v.1.15,2013-04-08 05:30:00,
2013-04-07 23:40:00,47.2,25.3,29.63,ESE,111,2.0,3.0,42,0.00,,,0.02,Wunderground v.1.15,2013-04-08 05:40:00,
2013-04-07 23:50:00,46.4,25.1,29.62,East,101,2.0,2.0,43,0.00,,,0.02,Wunderground v.1.15,2013-04-08 05:50:00,